Location: L�dingen
(68.4070°N, 15.9920°E)
Time: 09:54:27
(UTC+01:00)

Envisat - Visible Passes

Search period start: 20 March 2019 00:00
Search period end: 30 March 2019 00:00
Orbit: 764 x 766 km, 98.2° (Epoch: 19 March)

Date Brightness Start Highest point End Pass type
(mag) Time Alt. Az. Time Alt. Az. Time Alt. Az.
20 Mar 5.2 19:20:35 10° SSW 19:25:04 30° W 19:29:34 10° NNW visible
20 Mar 6.4 21:04:56 10° WNW 21:05:50 10° WNW 21:06:44 10° NW visible
21 Mar 6.0 20:25:15 10° WSW 20:28:19 16° WNW 20:31:23 10° NW visible
22 Mar 5.7 19:46:54 10° SW 19:50:57 23° W 19:55:00 10° NNW visible
23 Mar 6.2 20:52:30 10° W 20:54:23 12° WNW 20:56:15 10° NW visible
24 Mar 5.9 20:13:29 10° WSW 20:16:54 18° WNW 20:20:19 10° NW visible
25 Mar 5.5 19:35:20 10° SW 19:39:34 26° W 19:43:50 10° NNW visible
26 Mar 6.1 20:40:28 10° W 20:42:55 13° WNW 20:45:24 10° NW visible
27 Mar 5.8 20:01:48 10° SW 20:05:30 20° W 20:09:13 10° NNW visible
29 Mar 6.0 20:28:35 10° WSW 20:31:29 15° WNW 20:34:24 10° NW visible
